Погода в Ильине

Россия / Нижегородская область     56°13′58″N   42°54′57″E
темп.,
°C
ветер,
м/с
пор.,
м/с
влажн.,
%
обл.,
%
осадки,
мм/ч
давл.,
гПа
погр.,
м
27 октября, ср
ср2700:00+2юз51277100 0.0 1018445
03:00+2юз41180100 0.0 1017431
06:00+2юз41182100 0.0 1016411
09:00+3юз51374100 0.0 1015523
12:00+5юз61464100 0.0 1013709
15:00+6юз61361100 0.0 1011875
18:00+5зюз71368100 0.0 1010941
21:00+3зюз61396100 2.9 1011624
28 октября, чт
чт2800:00+5зюз51291100 0.0 1011630
03:00+5зюз51288100 0.1 1011606
06:00+4зюз31092100 0.0 1012313
09:00+4юз3991100 0.0 1012371
12:00+7юз3679100 0.0 1011585
15:00+5ю1395100 2.0 1010182
18:00+5ссв3596100 1.4 1012270
21:00+5ссв4989100 1.6 1016858
29 октября, пт
пт2900:00+3ссв587922 0.1 1021626
03:00−2ссв49765 0.1 1025441
06:00−3св377599 0.0 1028353
09:00−1всв236298 0.0 1031339
12:00+1ю224684 0.0 1031545
15:00+2ююз2547100 0.0 1031538
18:00+1ююз495889 0.0 1030369
21:00+1ююз51363100 0.0 1029402
30 октября, сб
сб3000:00+1юз5157880 0.0 1028426
03:00+2юз5139041 0.0 1027384
06:00+2зюз4129428 0.0 1028320
09:00+4зюз4129199 0.0 1028364
12:00+8зюз5127997 0.0 1028441
15:00+8зюз513775 0.0 1028491
18:00+5юз412905 0.0 1029314
21:00+4юз4129157 0.0 1029285
31 октября, вс
вс3100:00+3юз4119071 0.0 1029252
03:00+3юз411918 0.0 1029254
06:00+3юз4129356 0.0 1028270
09:00+5юз4138799 0.0 1028377
12:00+9юз6137021 0.0 1027517
15:00+9юз5136920 0.0 1027595
18:00+7юз5137969 0.0 1027405
21:00+5юз513805 0.0 1027356